User: anonymous   Login
Location: Unspecified
(0.0000°N, 0.0000°E)
Time: 23:54:54
(UTC+00:00)
Language:

BIRD GG - Orbit

View from above orbital plane
View from above orbital plane
View from above satellite
View from above satellite

Ground track
Ground track

The orbit data is extracted from the following two-line orbital elements,

1 42821U 98067MV  18294.44155692  .00028635  00000-0  20596-3 0  9996
2 42821  51.6326  77.0809 0002958 285.3216  74.7456 15.73361522 73664
Epoch (UTC): 21 October 2018 10:35:50
Eccentricity: 0.0002958
inclination: 51.6326°
perigee height: 347 km
apogee height: 351 km
right ascension of ascending node: 77.0809°
argument of perigee: 285.3216°
revolutions per day: 15.73361522
mean anomaly at epoch: 74.7456°
orbit number at epoch: 7366

The dashed part of the orbit path shows where the satellite is in the earth's shadow,  

DLR